Weather History for Clearfield, PA

Change the Weather History Date:

Saturday, January 18, 2014

  Actual Average (KDUJ) Record (KDUJ)
Temperature  
Mean Temperature 20 °F 23 °F  
Max Temperature 28 °F 31 °F 60 °F (1973)
Min Temperature 12 °F 16 °F -17 °F (1994)
Degree Days  
Heating Degree Days 45 42  
Month to date heating degree days 746  
Since 1 July heating degree days 3408  
Cooling Degree Days 0 0  
Month to date cooling degree days 0  
Year to date cooling degree days 0  
Moisture  
Dew Point 13 °F    
Average Humidity 79    
Maximum Humidity 96    
Minimum Humidity 61    
Precipitation  
Precipitation 0.01 in 0.10 in 0.78 in (1974)
Month to date precipitation 1.87  
Sea Level Pressure  
Sea Level Pressure 29.88 in    
Wind  
Wind Speed 9 mph (WSW)    
Max Wind Speed 16 mph    
Max Gust Speed 26 mph    
Visibility 7 miles    
Events Snow    
T = Trace of Precipitation, MM = Missing Value Source: NWS Daily Summary

Daily Weather History Graph

Daily Weather History Graph

Search for Another Location

Airport:

Trip Planner

Search our weather history database for the weather conditions in past years. The results will help you decide how hot, cold, wet, or windy it might be!

Date:

Astronomy

Jan. 18, 2014 Rise Set
Actual Time 7:35 AM EST 5:13 PM EST
Civil Twilight 7:04 AM EST 5:43 PM EST
Nautical Twilight 6:31 AM EST 6:17 PM EST
Astronomical Twilight 5:58 AM EST 6:50 PM EST
Moon 7:55 PM EST (1/18) 8:32 AM EST (1/18)
Length of Visible Light 10h 38m
Length of Day
9h 38m
Waning Gibbous, 94% of the Moon is Illuminated
Jan 18
Waning Gibbous
Jan 24
Last Quarter
Jan 30
New
Feb 6
First Quarter
Feb 14
Full

Hourly Weather History & Observations

Time (EST) Temp. Windchill Dew Point Humidity Pressure Visibility Wind Dir Wind Speed Gust Speed Precip Events Conditions
12:07 AM 28.0 °F 20.8 °F 27.0 °F 96% 29.81 in 2.0 mi SW 6.9 mph - 0.01 in Snow Light Snow
12:12 AM 28.0 °F 21.7 °F 27.0 °F 96% 29.81 in 5.0 mi WSW 5.8 mph - 0.01 in Snow Light Snow
12:22 AM 28.0 °F 17.5 °F 25.0 °F 88% 29.81 in 10.0 mi WSW 12.7 mph 21.9 mph 0.01 in   Overcast
12:38 AM 28.0 °F 18.6 °F 25.0 °F 88% 29.80 in 10.0 mi WSW 10.4 mph - 0.01 in   Overcast
12:54 AM 28.0 °F 18.6 °F 25.0 °F 88% 29.85 in 10.0 mi WSW 10.4 mph - 0.01 in   Overcast
1:36 AM 26.1 °F 16.8 °F 23.0 °F 88% 29.81 in 2.5 mi WSW 9.2 mph 18.4 mph 0.00 in Snow Light Snow
1:44 AM 26.1 °F 16.8 °F 23.0 °F 88% 29.82 in 3.0 mi WSW 9.2 mph - 0.00 in Snow Light Snow
1:54 AM 25.0 °F 15.5 °F 23.0 °F 92% 29.87 in 3.0 mi WSW 9.2 mph - 0.00 in Snow Light Snow
2:09 AM 25.0 °F 18.1 °F 23.0 °F 92% 29.81 in 1.8 mi WSW 5.8 mph - 0.00 in Snow Light Snow
2:30 AM 25.0 °F 14.8 °F 23.0 °F 92% 29.81 in 2.0 mi WSW 10.4 mph - 0.00 in Snow Light Snow
2:44 AM 24.1 °F 12.5 °F 21.0 °F 88% 29.82 in 1.8 mi WSW 12.7 mph 21.9 mph 0.00 in Snow Light Snow
2:50 AM 24.8 °F 16.9 °F 21.2 °F 86% 29.82 in 3.0 mi West 6.9 mph 21.9 mph 0.00 in Snow Light Snow
2:51 AM 24.1 °F 14.4 °F 21.0 °F 88% 29.88 in 3.0 mi West 9.2 mph - 0.00 in Snow Light Snow
3:00 AM 23.0 °F 13.1 °F 19.9 °F 88% 29.82 in 5.0 mi WSW 9.2 mph - 0.00 in Snow Light Snow
3:09 AM 23.0 °F 12.4 °F 19.0 °F 85% 29.82 in 8.0 mi WSW 10.4 mph - 0.00 in Snow Light Snow
3:54 AM 21.9 °F 12.5 °F 19.0 °F 89% 29.86 in 2.5 mi SW 8.1 mph - 0.00 in Snow Light Snow
4:06 AM 21.9 °F 12.5 °F 19.9 °F 92% 29.81 in 1.8 mi SW 8.1 mph - 0.00 in Snow Light Snow
4:14 AM 21.9 °F 12.5 °F 19.9 °F 92% 29.81 in 1.8 mi SW 8.1 mph - 0.00 in Snow Light Snow
4:35 AM 21.0 °F 12.4 °F 19.0 °F 92% 29.81 in 2.0 mi West 6.9 mph - 0.00 in Snow Light Snow
4:45 AM 21.0 °F 9.3 °F 18.0 °F 88% 29.81 in 1.8 mi West 11.5 mph 19.6 mph 0.00 in Snow Light Snow
4:54 AM 19.9 °F 7.9 °F 16.0 °F 85% 29.87 in 1.5 mi West 11.5 mph 23.0 mph 0.00 in Snow Light Snow
5:04 AM 19.0 °F 5.0 °F 14.0 °F 81% 29.81 in 2.5 mi West 15.0 mph 26.5 mph 0.00 in Snow Light Snow
5:12 AM 19.0 °F 5.6 °F 14.0 °F 81% 29.82 in 4.0 mi West 13.8 mph 26.5 mph 0.00 in Snow Light Snow
5:54 AM 18.0 °F 3.1 °F 10.9 °F 74% 29.88 in 5.0 mi WNW 16.1 mph 21.9 mph 0.00 in Snow Light Snow
6:04 AM 17.1 °F 3.0 °F 10.0 °F 74% 29.82 in 7.0 mi WNW 13.8 mph 21.9 mph 0.00 in   Overcast
6:54 AM 15.1 °F 3.3 °F 8.1 °F 74% 29.91 in 8.0 mi WNW 9.2 mph - 0.00 in Snow Light Snow
7:54 AM 14.0 °F 0.5 °F 7.0 °F 74% 29.93 in 10.0 mi West 11.5 mph - 0.00 in   Overcast
8:13 AM 12.0 °F -3.4 °F 6.1 °F 77% 29.86 in 8.0 mi West 13.8 mph 19.6 mph N/A   Overcast
8:54 AM 12.9 °F 1.6 °F 5.0 °F 71% 29.94 in 10.0 mi WNW 8.1 mph - N/A   Mostly Cloudy
9:02 AM 12.9 °F 1.6 °F 5.0 °F 71% 29.88 in 10.0 mi WNW 8.1 mph - N/A   Mostly Cloudy
9:54 AM 12.9 °F -1.6 °F 3.9 °F 67% 29.96 in 9.0 mi West 12.7 mph 25.3 mph N/A   Mostly Cloudy
10:54 AM 12.9 °F -0.9 °F 3.0 °F 65% 29.96 in 9.0 mi West 11.5 mph 18.4 mph 0.00 in   Mostly Cloudy
11:05 AM 12.9 °F 0.7 °F 3.0 °F 65% 29.89 in 10.0 mi WSW 9.2 mph - N/A   Scattered Clouds
11:46 AM 15.1 °F 3.3 °F 3.9 °F 61% 29.88 in 10.0 mi West 9.2 mph - N/A   Mostly Cloudy
11:54 AM 16.0 °F 5.3 °F 5.0 °F 62% 29.94 in 10.0 mi West 8.1 mph - N/A   Scattered Clouds
12:05 PM 15.1 °F 2.5 °F 3.9 °F 61% 29.87 in 10.0 mi West 10.4 mph - N/A   Mostly Cloudy
12:33 PM 16.0 °F 2.9 °F 5.0 °F 62% 29.86 in 10.0 mi West 11.5 mph - N/A   Scattered Clouds
12:54 PM 16.0 °F 3.6 °F 5.0 °F 62% 29.92 in 10.0 mi West 10.4 mph 18.4 mph N/A   Partly Cloudy
1:11 PM 15.1 °F 3.3 °F 6.1 °F 68% 29.85 in 10.0 mi WSW 9.2 mph - N/A   Mostly Cloudy
1:54 PM 16.0 °F 3.6 °F 6.1 °F 65% 29.92 in 10.0 mi WSW 10.4 mph - 0.00 in   Overcast
2:54 PM 16.0 °F 6.3 °F 6.1 °F 65% 29.95 in 10.0 mi West 6.9 mph - 0.00 in   Mostly Cloudy
3:54 PM 15.1 °F 3.3 °F 7.0 °F 70% 29.96 in 10.0 mi West 9.2 mph - 0.00 in   Overcast
4:54 PM 14.0 °F 5.1 °F 6.1 °F 71% 29.96 in 10.0 mi West 5.8 mph - N/A   Overcast
5:54 PM 14.0 °F 1.2 °F 7.0 °F 74% 29.97 in 10.0 mi SW 10.4 mph - N/A   Overcast
6:54 PM 14.0 °F 2.0 °F 7.0 °F 74% 29.98 in 10.0 mi WSW 9.2 mph - N/A   Overcast
7:54 PM 14.0 °F 5.1 °F 7.0 °F 74% 29.96 in 10.0 mi West 5.8 mph - N/A   Overcast
8:54 PM 12.9 °F 1.6 °F 6.1 °F 74% 29.96 in 10.0 mi West 8.1 mph - N/A   Overcast
9:54 PM 12.9 °F 3.8 °F 6.1 °F 74% 29.96 in 10.0 mi WSW 5.8 mph - N/A   Overcast
10:18 PM 12.0 °F 4.1 °F 6.1 °F 77% 29.87 in 10.0 mi WSW 4.6 mph - N/A   Scattered Clouds
10:54 PM 12.0 °F 4.1 °F 7.0 °F 80% 29.95 in 10.0 mi SW 4.6 mph - N/A   Mostly Cloudy
11:54 PM 12.9 °F 6.9 °F 8.1 °F 81% 29.91 in 10.0 mi SSW 3.5 mph - N/A   Overcast